Mattoon, IL

3:04 AM CST on December 11, 2019 (GMT -0600)
Coles County Memorial

Weather History for KMTO - May, 2019

Change the Weather History Date:

Thursday, May 30, 2019

  Actual Average Record
Temperature  
Mean Temperature 72 °F 67 °F  
Max Temperature 80 °F 78 °F 92 °F (1953)
Min Temperature 63 °F 57 °F 33 °F (2007)
Degree Days  
Heating Degree Days 0 2  
Month to date heating degree days 130 127  
Since 1 July heating degree days 5517 5389  
Cooling Degree Days 7 4  
Month to date cooling degree days 116 71  
Year to date cooling degree days 121 85  
Growing Degree Days 21 (Base 50)    
Moisture  
Dew Point 61 °F    
Average Humidity 72    
Maximum Humidity 93    
Minimum Humidity 50    
Precipitation  
Precipitation 0.01 in 0.12 in 1.63 in (1987)
Month to date precipitation 2.61 4.26  
Year to date precipitation 11.63 14.24  
Sea Level Pressure  
Sea Level Pressure 29.79 in    
Wind  
Wind Speed 7 mph (SW)    
Max Wind Speed 21 mph    
Max Gust Speed 30 mph    
Visibility 9 miles    
Events Rain    
T = Trace of Precipitation, MM = Missing Value Source: NWS Daily Summary

Daily Weather History Graph

Daily Weather History Graph

Search for Another Location

Airport or City:

Astronomy

May. 30, 2019 Rise Set
Actual Time 5:28 AM CDT 8:12 PM CDT
Civil Twilight 4:57 AM CDT 8:44 PM CDT
Nautical Twilight 4:17 AM CDT 9:24 PM CDT
Astronomical Twilight 3:32 AM CDT 10:09 PM CDT
Moon 3:33 AM CDT (5/30) 4:21 PM CDT (5/30)
Length of Visible Light 15h 47m
Length of Day
14h 43m
Waning Crescent, 15% of the Moon is Illuminated
May 30
Waning Crescent
Jun 3
New
Jun 10
First Quarter
Jun 17
Full
Jun 25
Last Quarter

Hourly Weather History & Observations

Time (CDT) Temp. Dew Point Humidity Pressure Visibility Wind Dir Wind Speed Gust Speed Precip Events Conditions
12:53 AM 64.0 °F 62.1 °F 93% 29.78 in 10.0 mi SSE 5.8 mph - N/A   Overcast
1:53 AM 64.9 °F 62.1 °F 90% 29.76 in 10.0 mi South 6.9 mph - N/A   Overcast
2:06 AM 64.9 °F 62.1 °F 90% 29.78 in 10.0 mi South 8.1 mph - N/A   Overcast
2:53 AM 64.9 °F 63.0 °F 93% 29.78 in 10.0 mi SW 6.9 mph - N/A   Overcast
3:33 AM 64.9 °F 63.0 °F 93% 29.79 in 6.0 mi WSW 4.6 mph - 0.00 in Rain Light Rain
3:53 AM 64.0 °F 63.0 °F 96% 29.78 in 6.0 mi WSW 5.8 mph - 0.00 in Rain Light Rain
4:40 AM 64.0 °F 62.1 °F 93% 29.79 in 4.0 mi West 4.6 mph - 0.00 in Rain Light Rain
4:53 AM 64.0 °F 62.1 °F 93% 29.76 in 4.0 mi WNW 6.9 mph - 0.01 in Rain Light Rain
5:00 AM 64.0 °F 62.1 °F 93% 29.78 in 6.0 mi WNW 3.5 mph - 0.00 in Rain Light Rain
5:53 AM 63.0 °F 61.0 °F 93% 29.77 in 10.0 mi Calm Calm - 0.00 in   Clear
6:01 AM 63.0 °F 62.1 °F 97% 29.78 in 10.0 mi Calm Calm - N/A   Scattered Clouds
6:53 AM 64.0 °F 63.0 °F 96% 29.79 in 10.0 mi South 3.5 mph - N/A   Clear
7:53 AM 66.0 °F 63.0 °F 90% 29.80 in 10.0 mi South 3.5 mph - N/A   Partly Cloudy
8:23 AM 68.0 °F 64.0 °F 87% 29.81 in 10.0 mi South 3.5 mph - N/A   Partly Cloudy
8:53 AM 68.0 °F 63.0 °F 84% 29.80 in 10.0 mi SSW 5.8 mph - N/A   Mostly Cloudy
9:01 AM 69.1 °F 64.0 °F 84% 29.81 in 10.0 mi SSW 6.9 mph - N/A   Scattered Clouds
9:09 AM 70.0 °F 64.0 °F 81% 29.81 in 10.0 mi SSW 8.1 mph - N/A   Mostly Cloudy
9:53 AM 70.0 °F 63.0 °F 78% 29.79 in 10.0 mi SSW 5.8 mph - N/A   Mostly Cloudy
10:21 AM 71.1 °F 63.0 °F 75% 29.80 in 10.0 mi SW 4.6 mph - N/A   Mostly Cloudy
10:53 AM 72.0 °F 63.0 °F 73% 29.79 in 10.0 mi North - - N/A   Mostly Cloudy
11:35 AM 73.9 °F 63.0 °F 68% 29.80 in 10.0 mi WSW 9.2 mph - N/A   Mostly Cloudy
11:53 AM 75.0 °F 63.0 °F 66% 29.78 in 10.0 mi SW 8.1 mph - N/A   Mostly Cloudy
12:10 PM 75.9 °F 62.1 °F 62% 29.80 in 10.0 mi WSW 8.1 mph 17.3 mph N/A   Scattered Clouds
12:53 PM 77.0 °F 61.0 °F 58% 29.78 in 10.0 mi South 9.2 mph - N/A   Scattered Clouds
1:53 PM 77.0 °F 60.1 °F 56% 29.78 in 10.0 mi WSW 8.1 mph 20.7 mph N/A   Mostly Cloudy
2:53 PM 79.0 °F 61.0 °F 54% 29.78 in 10.0 mi SW 9.2 mph - N/A   Scattered Clouds
3:53 PM 78.1 °F 61.0 °F 56% 29.77 in 10.0 mi SSW 10.4 mph 17.3 mph N/A   Partly Cloudy
4:53 PM 78.1 °F 60.1 °F 54% 29.77 in 10.0 mi SSW 8.1 mph - N/A   Partly Cloudy
5:53 PM 75.9 °F 57.9 °F 54% 29.76 in 10.0 mi SW 8.1 mph - N/A   Mostly Cloudy
6:53 PM 75.9 °F 55.9 °F 50% 29.76 in 10.0 mi WSW 9.2 mph - N/A   Mostly Cloudy
7:53 PM 73.0 °F 55.0 °F 53% 29.79 in 10.0 mi West 8.1 mph - N/A   Clear
8:53 PM 69.1 °F 57.0 °F 65% 29.81 in 10.0 mi WNW 13.8 mph - N/A   Mostly Cloudy
9:53 PM 66.0 °F 57.0 °F 73% 29.84 in 10.0 mi WNW 8.1 mph - N/A   Scattered Clouds
10:53 PM 66.0 °F 55.0 °F 68% 29.84 in 10.0 mi West 6.9 mph - N/A   Clear
11:53 PM 64.9 °F 57.0 °F 75% 29.84 in 10.0 mi West 5.8 mph - N/A   Clear